Showing default

COSMOS 2500 (GLONASS), 40001

Orbit data source: Space-Track

COSMOS 2500 (GLONASS), 40001 is a Commonwealth of Independent States-origin payload satellite in MEO that was launched on Sat, 14 Jun 2014 UTC via a SOYUZ-2-1B launch vehicle from the Plesetsk Missile And Space Complex (PKMTR). Payload-class satellites include a variety of spacecraft equipped with specific instruments for various scientific and technological missions. These include communications satellites like Starlink; space stations such as the ISS; scientific satellites like the Hubble; Earth observation satellites from companies like Planet Labs, Umbra, and HawkEye 360; GPS; miniature CubeSats for education and research; and military/defense satellites.

Loading next visibility...
Identifier
40001, 2014-032A
Orbit
MEO
Country
Flag of CISCIS
Related business
Manufacturer
Resehetnev ISS
Mission
Operational Defense Navigation
Bus & Motor
URAGAN, Unknown motor
Mass
1,450 kg wet, ~1,200 kg dry
Launch date (UTC)
2014-06-14 (12 years ago)
Launch vehicle
SOYUZ-2-1B
Launch site
Plesetsk Missile And Space Complex (PKMTR)
Object type
Payload
Rocket body
Debris
Shape & HBR
Cyl + 1 Ant + 2 Pan, 3.9 m
Radar Cross Section
8.467 m², Large (>1 m²)

Expand to show TLE details & history
Last TLE update: 1 day ago

TLE from 1 day ago
0 COSMOS 2500 (GLONASS)
1 40001U 14032A   26061.04898512 -.00000045  00000-0  00000-0 0  9997
2 40001  65.2942 317.3353 0005232 203.2549 156.7786  2.13105727 91173
Epoch: 2026-03-02T01:10Z
TLE epoch observation values (Epoch: 2026-03-02T01:10:32.314Z)
Latitude
0.00005°
Longitude
139.86283°
Altitude
19,142.446 km
Speed
3.951 km/s
True Right ascension
21h 09m 22s
True Declination
0° 00' 00"
Sunlit
Object was in daylight at epoch
Visualization orbit readout
Latitude
Unknown
Longitude
Unknown
Altitude
Unknown
Speed
Unknown
Apparent Right ascension
Unknown
Apparent Declination
Unknown
Sunlit
N/A
Visualization observer readout
Local Sidereal Time
06:39:53
Azimuth
Unknown
Elevation
Unknown
Doppler factor
Unknown
Orbital elements
Apogee altitude
19,142.54 km
Perigee altitude
19,115.849 km
Semi-major axis
25,507.332 km
Eccentricity
0.00052
Inclination
65.2942°
RAAN
317.3353°
Arg. of periapsis
203.2549°
True anomaly
156.80222°
Mean anomaly
156.7786°
Eccentric anomaly
156.79041°
Mean motion
0.53278 °/min
Orbital period
675.7 mins
BSTAR
0
Loading maneuver chart data...
Computing Atmospheric mass density...
Loading historical data...
Loading historical data...
Loading historical data...
Loading historical data...
Loading historical data...
Loading historical data...
Loading historical data...
Other satellites on launch #32 in the year 2014 (2014-06-14 UTC)

Documentation

Showing up to 5 results
|